Location: Unspecified
(0.0000°N, 0.0000°E)
Time: 18:58:48
(UTC+00:00)

S-56A Canister/Altair - Pass Details

Date: 19 November 2019
Orbit: 633 x 2500 km, 38.9° (Epoch: 08 December)

Event Time Altitude Azimuth Distance (km) Brightness Sun altitude
Rises 10:51:29 0° 210° (SSW) 5,890 12.2 66.5°
Reaches altitude 10° 10:55:59 10° 200° (SSW) 5,036 12.0 67.1°
Maximum altitude 11:08:28 31° 143° (SE) 3,677 12.0 68.6°
Drops below altitude 10° 11:20:17 10° 87° (E) 4,823 11.8 69.6°
Sets 11:24:24 0° 77° (ENE) 5,621 12.0 69.9°
